If you wish to contribute or participate in the discussions about articles you are invited to join SKYbrary as a registered user

 Actions

Aarhus Airport

From SKYbrary Wiki

EKAH
Airport
ICAO: EKAH – IATA: AAR
Summary
Name Aarhus Airport
Region Europe
Territory Denmark DK.gif
Location Tirstrup, Central Jutland Region
Serving Aarhus
Elevation 24.994 m
82 ft
82 ft24.994 m
Coordinates 56° 18' 11.42" N, 10° 37' 4.39" E
Runways
Designator Length Width Surface ROPS
10L/28R 2777 m9,110.892 ft
23 m75.459 ft
PEM yes/yes
10R/28L 2702 m8,864.829 ft
45 m147.638 ft
PEM yes/yes


METAR
Observation EKAH 231120Z AUTO 18008G21KT 110V230 9999NDV FEW053/// 17/10 Q1015
Station Tirstrup
Date/Time 23 May 2019 11:20:00
Wind direction 180°
Wind speed 08 kts
Lowest cloud amount few clouds
Temperature 17°C
Dew point 10°C
Humidity 63%
QNH 1015 hPa
Weather condition n/a

Aarhus Airport

ICAO: EKAH IATA: AAR

Description

International airport serving Aarhus, Denmark.

Climatology

Temperate Marine climate/Oceanic climate (Köppen climate classification Cfb). Moderately cool summer and comparatively warm winter with a temperature range of only 14°C57.2 °F
287.15 K
516.87 °R
. Prevailing south-westerly winds from the Atlantic Ocean.

Maps

Terrain

Loading map...

Airport Layout

Loading map...


Accidents & Serious Incidents at or in vicinity of EKAH

None on SKYbrary